Temperature
6 4 4 4 5 6 5 5 5 6 6 5 4 4 4 4 4 3 3 3 3 4 4 4 4 5 5 5 5 5 5 5 5 5 5 5 5 6 6 6 6 6 6 6
4 4 5 5 5 5 5 5 5 5 5 5 3 3 3 3 3 3 3 3 3 3 3 3 4 4 4 4 4 4 4 4 4 4 4 4 4 4 5 5 5 5 5 5
5 4 5 5 5 5 5 4 4 4 4 4 3 3 3 3 3 3 3 3 3 3 3 3 3 3 3 3 3 3 3 3 3 3 3 3 4 4 4 4 5 5 5 5
3 4 5 5 4 4 4 4 4 4 3 2 3 2 3 2 2 2 2 2 2 2 2 2 2 2 2 2 2 2 3 3 3 2 3 3 3 3 3 3 3 4 4 4
3 3 4 4 4 4 3 3 3 3 2 1 1 1 2 1 2 1 1 1 2 2 2 2 2 2 2 2 2 2 2 2 2 2 2 2 2 2 2 2 3 3 3 4
2 3 3 3 3 3 3 2 2 0 0 1 1 1 2 1 1 1 1 1 1 1 1 1 1 1 1 1 1 1 1 1 1 1 1 1 1 1 1 2 2 2 3 3
2 2 2 2 2 2 2 2 1 1 1 1 1 1 1 1 0 0 0 0 1 1 1 0 0 0 1 1 1 1 1 1 1 1 1 1 1 1 1 1 1 1 2 2
1 2 1 1 2 1 1 2 2 2 1 1 1 1 1 -0 -0 0 0 0 0 0 0 -0 -0 -0 -0 0 0 0 -0 0 0 0 0 0 0 0 0 1 1 1 1 1
1 1 1 1 1 2 1 0 1 0 -0 -0 -0 -1 -0 -1 -1 -1 -1 -1 -0 -0 -0 -0 -1 -1 -0 -0 -0 -1 -1 -1 -0 -0 -0 -0 -0 -0 -0 -0 -0 -0 0 1
0 -0 -0 0 1 1 1 -0 -1 -0 0 1 0 -1 -0 -1 -1 -2 -2 -2 -1 -1 -1 -1 -1 -1 -1 -1 -1 -1 -1 -1 -1 -1 -1 -1 -1 -1 -1 -1 -1 -1 -0 -0
-1 -1 -1 -1 -1 -1 -0 -0 -1 -1 -1 -0 -0 1 -0 -1 -1 -2 -2 -2 -1 -2 -2 -2 -1 -1 -2 -2 -2 -2 -2 -2 -2 -2 -2 -2 -2 -1 -1 -1 -1 -1 -1 -1
-1 -2 -2 -2 -2 -1 -1 -1 -1 -0 -1 -2 -1 -0 -1 -2 -2 -2 -2 -2 -2 -2 -2 -2 -2 -2 -2 -2 -2 -2 -2 -2 -2 -2 -2 -2 -2 -2 -2 -2 -1 -2 -1 -1
-1 -2 -1 -1 -2 -3 -3 -3 -3 -2 -2 -2 -1 -0 -2 -3 -3 -3 -3 -3 -2 -3 -3 -3 -3 -3 -3 -3 -3 -3 -3 -3 -3 -3 -3 -3 -3 -3 -3 -2 -2 -2 -2 -2
-1 -2 -1 0 -0 -2 -3 -3 -3 -2 -2 -2 -2 -1 -2 -3 -4 -3 -3 -3 -3 -3 -3 -3 -3 -3 -3 -3 -3 -3 -3 -3 -3 -4 -4 -4 -3 -3 -3 -3 -2 -2 -2 -2
-2 -2 -3 -2 -2 -2 -2 -2 -3 -3 -3 -2 -2 -2 -2 -3 -4 -3 -3 -3 -4 -4 -4 -4 -4 -4 -4 -4 -4 -4 -4 -4 -4 -4 -4 -4 -4 -4 -4 -3 -3 -3 -3 -3
-3 -3 -3 -3 -2 -3 -2 -3 -3 -3 -3 -3 -3 -3 -3 -3 -3 -4 -4 -4 -4 -4 -4 -4 -4 -4 -4 -4 -4 -4 -4 -4 -4 -4 -4 -5 -5 -4 -4 -4 -4 -3 -3 -3
-4 -4 -3 -3 -4 -3 -3 -3 -3 -4 -4 -4 -3 -3 -4 -5 -4 -4 -4 -4 -4 -4 -5 -5 -5 -5 -5 -5 -5 -5 -5 -5 -5 -5 -5 -5 -5 -5 -5 -4 -4 -4 -4 -4
-4 -4 -4 -4 -4 -3 -2 -4 -4 -4 -5 -5 -4 -4 -5 -4 -4 -4 -4 -4 -4 -5 -5 -5 -5 -5 -5 -5 -5 -5 -5 -5 -5 -5 -5 -5 -5 -5 -5 -5 -5 -4 -4 -4
-5 -4 -4 -4 -4 -3 -3 -4 -5 -5 -5 -6 -5 -5 -5 -5 -5 -5 -4 -4 -5 -5 -5 -5 -6 -6 -6 -6 -6 -6 -6 -6 -6 -6 -5 -5 -5 -5 -5 -5 -5 -5 -5 -4
-5 -5 -5 -5 -4 -3 -3 -5 -5 -5 -4 -5 -6 -6 -6 -6 -6 -6 -4 -5 -5 -5 -6 -6 -6 -6 -6 -6 -6 -6 -6 -6 -6 -6 -6 -6 -6 -6 -6 -5 -5 -5 -5 -5
-6 -6 -6 -5 -5 -4 -5 -6 -5 -4 -4 -5 -5 -6 -6 -6 -6 -5 -5 -6 -6 -6 -6 -6 -7 -7 -7 -7 -6 -6 -6 -6 -6 -6 -6 -6 -6 -6 -6 -6 -6 -6 -6 -5
-7 -7 -6 -6 -6 -4 -6 -6 -6 -5 -5 -5 -5 -5 -6 -6 -6 -6 -6 -6 -6 -6 -7 -7 -7 -7 -7 -7 -7 -7 -7 -7 -7 -7 -6 -6 -6 -6 -6 -6 -6 -6 -6 -6
-8 -7 -7 -6 -5 -6 -7 -6 -6 -5 -6 -6 -6 -6 -6 -6 -6 -6 -7 -7 -7 -7 -7 -8 -8 -8 -7 -8 -8 -8 -7 -7 -7 -7 -7 -7 -6 -6 -6 -6 -6 -6 -6 -6
-9 -9 -8 -8 -8 -7 -7 -6 -6 -6 -6 -6 -6 -6 -7 -7 -7 -7 -7 -7 -8 -8 -8 -8 -8 -8 -8 -8 -8 -8 -8 -8 -8 -8 -7 -7 -7 -7 -7 -7 -7 -6 -6 -6
-9 -9 -9 -9 -9 -8 -7 -6 -6 -6 -6 -6 -7 -7 -7 -8 -8 -8 -8 -8 -8 -8 -9 -9 -9 -9 -9 -8 -8 -9 -8 -8 -8 -8 -8 -8 -7 -7 -7 -7 -7 -7 -7 -7
-10 -10 -9 -8 -8 -8 -7 -6 -6 -7 -7 -7 -7 -8 -8 -8 -8 -9 -9 -9 -9 -9 -9 -9 -9 -9 -9 -9 -9 -9 -9 -9 -9 -9 -9 -8 -8 -8 -8 -8 -7 -7 -7 -7
Wind_Speed
2 4 3 6 6 3 4 4 4 4 2 2 6 7 7 4 4 5 5 5 5 4 1 2 2 3 4 3 3 2 2 2 2 2 2 2 2 3 3 4 4 4 4 3
4 3 5 3 3 2 2 3 3 3 1 2 4 7 6 4 5 6 6 6 5 3 2 2 3 3 3 3 2 2 1 1 1 1 1 1 1 2 2 3 4 4 4 3
5 4 3 2 2 3 3 5 4 4 3 2 2 5 3 2 2 2 3 5 5 6 5 4 3 2 2 2 2 1 1 0 0 1 1 2 2 2 2 3 3 3 3 3
2 3 1 2 2 4 5 3 3 2 1 4 1 4 6 4 3 4 4 4 5 5 5 4 4 3 2 2 2 1 1 0 0 0 1 1 1 1 3 3 3 4 3 3
2 1 1 3 3 3 4 1 2 1 2 2 2 3 7 2 4 6 5 5 5 5 5 5 4 4 2 1 2 2 1 1 1 0 1 1 1 2 2 3 3 4 3 3
2 1 0 2 0 2 3 4 4 4 3 3 6 6 6 5 7 5 4 4 4 4 3 3 3 3 2 1 1 1 1 1 1 1 1 2 2 3 3 4 3 3 3 3
3 2 1 1 2 2 3 4 2 3 1 6 3 5 8 5 5 5 5 4 4 4 3 2 2 3 3 2 2 2 2 2 2 2 2 3 3 3 4 4 3 3 3 3
1 4 3 1 3 4 4 6 6 6 5 5 2 6 6 3 2 2 3 3 2 3 3 3 3 3 3 3 2 2 3 3 3 3 3 3 3 3 3 4 4 4 4 4
4 4 2 1 1 3 4 4 4 4 1 2 5 5 6 0 0 1 2 1 2 2 2 3 2 2 2 2 3 4 4 3 3 3 3 4 4 4 4 5 4 4 5 5
4 3 3 2 1 2 1 5 4 4 4 5 5 5 5 5 4 3 2 3 3 2 2 2 2 2 2 3 2 2 3 4 4 4 4 4 4 5 5 5 5 5 5 5
3 3 2 1 3 5 2 2 4 4 4 5 4 6 5 7 6 6 5 4 3 3 3 3 2 2 2 2 2 3 3 3 4 5 5 5 5 5 5 5 6 5 5 5
3 3 3 5 3 1 3 4 6 5 5 4 4 7 3 4 4 4 4 3 3 3 2 2 2 2 2 3 3 3 3 4 4 5 5 5 5 5 6 6 6 6 6 6
4 3 0 4 3 2 2 3 3 3 2 4 5 7 1 1 0 1 2 2 2 2 2 2 2 2 3 4 4 4 4 4 5 4 5 5 6 6 6 6 6 6 6 6
3 3 6 8 6 4 4 4 4 5 4 5 8 9 7 3 3 3 3 3 2 3 3 3 3 4 4 4 4 4 5 4 4 4 5 5 6 7 7 6 6 6 6 6
3 3 4 5 5 3 5 6 7 8 9 9 8 8 10 6 5 5 3 3 3 3 3 4 5 5 5 5 5 5 5 5 5 5 5 6 6 6 6 6 6 6 6 7
2 2 1 3 3 2 4 6 8 9 7 9 9 11 8 4 2 3 3 3 4 4 5 5 5 5 5 6 6 6 5 5 5 5 6 6 6 6 6 6 6 6 7 7
3 4 2 3 2 2 5 7 8 5 6 7 10 9 3 3 4 5 5 5 5 6 6 6 6 6 6 6 6 6 6 5 5 6 7 6 6 6 6 6 6 7 7 6
5 4 3 1 1 5 7 2 5 6 5 6 5 4 4 5 5 5 5 5 5 6 6 6 6 6 6 6 6 6 6 6 6 6 7 7 6 6 6 6 7 7 7 7
4 5 3 3 3 6 6 2 2 4 5 5 6 5 4 2 3 4 3 3 4 5 6 6 6 6 5 6 5 5 5 6 6 7 7 7 6 7 7 7 7 7 6 7
2 2 3 3 3 6 5 2 1 2 4 2 3 4 3 1 2 4 3 3 4 4 4 5 5 5 5 6 4 5 6 6 7 8 8 7 7 7 7 7 7 6 6 7
1 1 4 5 5 6 4 3 1 3 5 2 2 2 2 3 5 4 4 4 4 4 5 5 4 5 5 5 4 5 6 7 8 8 7 7 7 7 7 6 6 5 5 6
5 3 3 3 4 6 1 2 3 4 2 1 1 2 2 4 4 4 4 4 4 5 5 5 5 6 6 5 4 6 7 7 7 7 7 7 6 5 5 5 5 5 5 5
4 5 4 5 5 2 2 2 3 2 2 2 2 3 2 3 4 4 4 4 5 5 5 5 5 6 6 5 4 6 7 7 7 7 7 6 6 4 4 4 4 4 4 4
3 1 2 3 5 4 3 2 3 2 2 3 2 3 2 4 5 5 5 5 5 5 5 5 5 6 7 6 6 6 7 6 6 6 6 5 4 4 4 4 4 4 4 4
3 2 2 4 5 4 3 4 4 3 2 2 3 3 3 3 4 4 5 5 5 5 5 4 5 6 7 7 7 7 7 6 6 6 5 5 4 4 4 4 4 5 5 5
2 3 4 5 4 3 5 4 2 2 3 3 3 3 3 2 4 4 4 4 4 5 5 5 5 6 6 6 7 7 6 5 5 5 5 4 4 4 4 4 5 7 6 8
Wind_Direction
63 88 190 210 205 198 174 191 229 241 239 207 225 249 261 237 201 193 191 189 191 205 208 147 129 118 113 110 113 116 101 65 64 50 36 14 352 341 344 0 3 4 359 8
52 243 230 206 210 197 191 222 247 287 339 243 257 271 265 228 203 196 191 189 188 168 117 111 106 108 118 126 123 119 117 106 67 51 10 323 311 309 323 337 347 355 354 357
186 230 223 183 185 197 226 211 224 241 333 346 332 298 251 247 200 187 182 178 176 169 165 162 149 147 124 129 161 170 177 136 37 49 38 22 13 354 346 334 323 337 342 341
224 277 215 162 196 181 232 218 203 200 162 267 172 272 263 231 229 220 217 192 185 181 170 169 168 173 182 207 198 187 185 151 0 98 119 104 351 302 295 298 297 308 323 330
256 292 160 201 221 179 195 138 154 172 174 286 239 213 272 224 225 229 219 202 194 189 182 183 186 190 195 204 198 198 191 208 262 238 177 181 270 277 293 296 301 300 304 312
252 310 222 208 257 161 130 71 52 55 83 262 222 193 263 224 210 210 211 205 196 187 189 196 189 179 187 200 200 196 195 239 251 238 223 210 235 264 282 293 282 296 290 293
315 304 327 73 85 40 101 103 34 344 308 247 207 206 247 240 203 194 200 205 196 178 181 187 190 200 202 205 215 219 223 247 248 239 241 234 232 238 243 263 259 276 284 282
232 275 244 247 187 184 196 163 172 208 231 271 267 230 253 255 211 175 179 186 178 183 191 203 208 208 217 223 222 224 235 246 248 246 250 248 240 241 247 254 251 252 265 264
194 250 321 313 305 157 162 196 175 149 172 263 260 274 294 224 191 152 159 159 205 223 222 225 227 216 219 240 241 228 229 241 248 251 253 254 249 249 252 260 257 254 267 276
167 237 286 315 19 347 180 154 124 152 188 243 271 256 237 229 223 213 212 219 241 247 241 242 236 230 244 247 256 260 241 239 246 249 247 259 252 249 252 256 257 252 262 273
149 177 297 331 207 208 163 169 165 165 184 190 248 261 227 205 202 203 216 219 223 238 244 247 253 254 260 273 264 257 266 264 259 254 252 255 256 254 255 255 257 256 256 264
170 150 236 250 266 275 203 194 165 180 224 204 221 266 283 201 197 194 216 230 239 248 257 258 262 278 284 280 271 260 260 261 265 264 258 256 258 257 253 254 256 259 254 260
153 137 20 330 325 336 252 227 193 165 154 193 209 258 333 60 214 222 227 252 272 279 287 288 283 277 276 277 271 270 269 271 272 266 270 263 256 254 252 254 255 258 252 257
132 163 197 219 234 198 229 233 206 173 196 224 229 250 281 284 274 275 265 257 264 271 274 276 282 277 277 282 275 273 276 276 279 277 270 271 263 254 252 253 252 253 249 248
131 205 236 260 266 228 233 230 205 209 212 219 241 244 264 263 252 249 245 264 278 285 286 285 286 285 287 292 291 283 283 282 280 276 276 273 276 268 259 256 252 251 250 249
141 197 231 278 278 249 269 253 225 229 231 238 257 268 268 271 260 257 257 259 268 277 281 284 288 290 291 290 292 293 289 289 285 277 276 276 277 280 268 258 258 252 250 248
177 165 174 249 284 357 272 239 210 212 217 207 235 248 267 284 262 251 250 247 253 266 276 278 279 281 281 282 283 284 285 288 283 279 278 275 275 278 275 262 255 250 247 250
172 165 181 203 88 235 246 211 194 203 240 225 237 255 248 254 270 267 247 235 257 272 276 278 279 280 281 280 284 286 289 282 277 277 278 280 280 278 279 270 254 250 250 249
171 168 177 183 220 266 288 254 190 199 263 234 230 254 273 307 329 300 255 236 258 271 276 275 274 278 281 281 283 288 289 287 282 279 280 281 279 272 270 268 263 255 253 255
89 146 175 188 207 236 258 270 258 127 278 264 209 243 267 6 296 276 299 311 304 297 292 292 293 293 289 287 285 282 284 285 281 281 281 281 274 265 264 265 265 262 256 254
118 168 198 211 228 255 273 289 112 166 262 301 223 241 250 230 241 274 302 309 306 303 303 304 302 297 293 293 289 284 284 279 281 286 286 281 273 265 262 263 265 262 263 261
177 180 199 181 212 252 296 109 176 236 297 300 261 249 251 263 282 295 298 302 308 311 311 309 307 306 307 302 293 289 288 291 295 294 291 287 282 273 267 260 264 260 253 258
199 199 199 201 219 262 183 211 264 273 277 284 278 283 271 281 289 297 297 297 302 304 306 308 305 308 312 310 301 293 297 303 303 301 298 297 294 288 278 264 262 264 250 249
268 278 199 253 268 276 268 283 312 300 274 281 281 288 281 277 286 296 296 300 304 307 308 309 310 311 314 316 314 304 307 309 305 304 305 305 302 300 295 285 271 262 250 247
230 190 220 256 283 311 283 263 277 291 304 311 313 298 278 273 289 293 297 299 302 307 309 309 309 308 311 317 319 316 315 315 312 310 310 312 307 303 299 294 279 273 261 252
215 190 196 238 246 236 267 276 282 289 297 294 303 316 316 286 287 299 299 301 304 306 310 313 311 309 313 319 319 321 322 319 315 315 317 314 312 308 303 302 307 303 292 289
Height
1501 1506 1509 1508 1508 1508 1510 1512 1512 1510 1507 1510 1510 1508 1506 1505 1505 1506 1506 1507 1508 1509 1510 1511 1512 1513 1514 1515 1516 1517 1518 1518 1519 1519 1519 1519 1519 1519 1520 1520 1520 1520 1520 1520
1506 1508 1505 1505 1506 1507 1510 1512 1513 1510 1508 1510 1510 1509 1505 1503 1502 1502 1502 1503 1504 1506 1508 1509 1510 1511 1511 1513 1514 1514 1515 1516 1516 1517 1517 1517 1517 1517 1517 1517 1517 1517 1517 1516
1505 1505 1503 1504 1506 1507 1509 1511 1511 1512 1511 1510 1512 1508 1504 1501 1501 1501 1501 1501 1502 1503 1504 1506 1507 1508 1509 1510 1511 1512 1512 1513 1514 1514 1514 1514 1514 1513 1513 1513 1513 1513 1513 1513
1505 1504 1503 1503 1505 1506 1508 1508 1509 1510 1515 1517 1515 1516 1504 1501 1500 1499 1499 1499 1500 1501 1502 1504 1505 1505 1506 1508 1509 1509 1510 1510 1511 1511 1511 1511 1510 1510 1510 1510 1510 1510 1510 1509
1505 1504 1503 1504 1504 1505 1507 1507 1509 1511 1515 1520 1518 1520 1505 1501 1500 1497 1496 1497 1498 1499 1500 1501 1502 1503 1504 1505 1506 1506 1506 1507 1508 1508 1508 1508 1507 1507 1507 1507 1507 1506 1506 1506
1505 1504 1504 1504 1504 1504 1506 1509 1512 1517 1520 1521 1514 1518 1504 1500 1495 1494 1494 1494 1495 1497 1498 1500 1500 1501 1502 1502 1503 1503 1503 1503 1504 1504 1504 1504 1504 1503 1503 1503 1503 1502 1502 1502
1507 1505 1504 1504 1505 1506 1507 1513 1521 1521 1525 1517 1511 1510 1500 1492 1490 1491 1491 1492 1493 1494 1496 1496 1497 1498 1498 1499 1499 1500 1500 1500 1500 1500 1500 1500 1500 1500 1499 1499 1499 1499 1498 1498
1509 1508 1504 1504 1504 1506 1508 1508 1516 1519 1520 1514 1511 1508 1496 1490 1489 1489 1490 1491 1491 1492 1493 1494 1494 1495 1495 1496 1496 1496 1496 1496 1496 1496 1496 1496 1496 1496 1496 1496 1495 1495 1494 1494
1508 1507 1505 1503 1503 1503 1506 1509 1509 1517 1521 1522 1512 1506 1495 1490 1489 1489 1489 1489 1489 1490 1491 1491 1492 1492 1492 1493 1493 1493 1492 1492 1492 1492 1492 1491 1491 1491 1491 1491 1491 1490 1490 1490
1504 1510 1506 1505 1504 1504 1505 1507 1513 1516 1517 1515 1508 1506 1497 1491 1489 1489 1488 1488 1488 1488 1488 1489 1489 1489 1489 1489 1489 1489 1489 1488 1488 1488 1487 1487 1487 1486 1486 1486 1486 1485 1485 1485
1503 1509 1510 1508 1507 1505 1507 1508 1508 1512 1513 1513 1510 1498 1487 1485 1485 1486 1486 1486 1486 1486 1486 1486 1486 1486 1486 1486 1485 1485 1485 1484 1484 1483 1483 1482 1481 1481 1481 1481 1480 1480 1480 1480
1501 1507 1510 1507 1505 1504 1504 1504 1506 1508 1510 1512 1509 1497 1483 1483 1483 1484 1484 1484 1484 1484 1484 1483 1483 1483 1483 1482 1482 1481 1480 1479 1478 1478 1478 1477 1476 1476 1475 1475 1475 1475 1474 1474
1499 1505 1508 1505 1508 1508 1506 1504 1505 1505 1507 1509 1506 1495 1484 1483 1483 1483 1483 1483 1482 1482 1482 1481 1481 1480 1479 1478 1478 1477 1476 1475 1474 1473 1472 1472 1471 1470 1469 1469 1469 1469 1469 1469
1495 1500 1500 1498 1495 1499 1502 1502 1502 1503 1505 1504 1498 1488 1483 1483 1483 1482 1481 1481 1480 1480 1479 1479 1478 1477 1476 1475 1473 1472 1471 1470 1469 1468 1467 1466 1465 1465 1464 1463 1463 1463 1463 1463
1494 1499 1498 1495 1493 1495 1494 1495 1498 1498 1495 1495 1488 1488 1481 1481 1481 1479 1479 1478 1478 1477 1477 1476 1474 1473 1472 1470 1469 1468 1466 1465 1464 1463 1461 1460 1459 1459 1458 1457 1457 1457 1457 1457
1495 1498 1498 1496 1493 1493 1492 1490 1491 1491 1491 1490 1487 1484 1478 1478 1478 1477 1476 1476 1475 1474 1474 1473 1471 1470 1468 1466 1465 1463 1462 1461 1459 1457 1456 1455 1454 1453 1452 1451 1451 1451 1451 1451
1495 1497 1498 1496 1496 1493 1492 1486 1486 1487 1485 1485 1483 1479 1476 1477 1475 1474 1473 1473 1472 1472 1471 1469 1468 1466 1464 1463 1461 1459 1457 1456 1454 1452 1451 1450 1448 1447 1446 1446 1446 1445 1445 1445
1492 1494 1496 1497 1499 1496 1481 1479 1479 1480 1480 1479 1477 1475 1474 1473 1472 1472 1471 1470 1469 1468 1467 1465 1464 1462 1461 1459 1457 1455 1453 1451 1449 1447 1446 1444 1442 1441 1440 1440 1439 1439 1439 1438
1487 1490 1494 1496 1496 1488 1480 1478 1479 1479 1478 1475 1475 1473 1473 1472 1471 1469 1468 1468 1467 1465 1464 1462 1460 1458 1456 1455 1453 1451 1449 1447 1444 1442 1440 1439 1437 1436 1435 1434 1433 1433 1433 1432
1488 1489 1493 1494 1492 1487 1477 1476 1475 1478 1477 1472 1471 1471 1471 1471 1472 1468 1466 1465 1463 1462 1460 1458 1456 1454 1452 1450 1448 1446 1444 1442 1439 1437 1435 1433 1432 1430 1429 1428 1427 1427 1427 1426
1491 1492 1493 1493 1491 1482 1477 1475 1475 1480 1474 1470 1469 1469 1469 1469 1468 1466 1463 1462 1460 1458 1457 1455 1452 1450 1448 1446 1444 1441 1439 1437 1434 1432 1430 1428 1426 1424 1423 1422 1421 1421 1420 1420
1490 1492 1492 1492 1490 1483 1476 1475 1477 1474 1470 1468 1467 1467 1466 1465 1464 1462 1460 1459 1457 1455 1453 1451 1448 1446 1444 1442 1440 1437 1435 1432 1430 1427 1425 1422 1420 1419 1417 1416 1416 1415 1415 1414
1487 1485 1484 1483 1480 1475 1473 1472 1471 1470 1469 1467 1466 1465 1464 1463 1461 1459 1458 1456 1454 1452 1450 1447 1445 1442 1440 1438 1436 1433 1430 1428 1425 1422 1420 1417 1415 1414 1413 1412 1411 1410 1410 1409
1483 1481 1481 1480 1475 1472 1471 1470 1469 1468 1467 1466 1465 1464 1462 1461 1459 1457 1455 1453 1451 1449 1447 1444 1442 1439 1436 1434 1431 1429 1426 1424 1421 1418 1416 1413 1411 1409 1408 1408 1407 1406 1404 1404
1479 1480 1480 1478 1473 1471 1468 1468 1467 1466 1465 1464 1463 1462 1460 1458 1456 1455 1452 1450 1448 1446 1444 1441 1439 1436 1433 1430 1428 1426 1423 1420 1417 1415 1412 1409 1408 1406 1405 1403 1402 1401 1400 1400
1476 1477 1477 1474 1470 1470 1467 1465 1465 1464 1463 1462 1460 1459 1458 1457 1454 1453 1450 1448 1446 1444 1441 1438 1436 1433 1431 1428 1425 1423 1420 1417 1414 1412 1409 1407 1405 1403 1402 1400 1398 1397 1396 1395